Simultaneous Nadir Overpasses (SNOs) Predictions

Prediction of SNOs between NOAA-19 and TERRA Satellite Orbit:

Table of predicted SNOs for the next 14.0 days since TLE Epoch: 9/23/2023
Index Date (NOAA-19) Time (NOAA-19) Lat,Lon (NOAA-19) SZA (NOAA-19 ) Date (TERRA) Time (TERRA) Lat,Lon (TERRA) SZA (TERRA ) Distance(km) Time Diff (sec)
1 09/24/2023 08:21:51 80.78, 85.09 82.61 09/24/2023 08:22:55 80.77, 84.99 82.61 2.06 64
2 09/24/2023 09:12:53 -80.80,-107.03 97.31 09/24/2023 09:12:16 -80.80,-106.98 97.32 0.84 37
3 09/26/2023 12:12:18 -80.78,-152.41 96.53 09/26/2023 12:13:02 -80.79,-152.29 96.50 2.61 44
4 09/26/2023 13:03:12 80.80, 15.35 83.54 09/26/2023 13:02:24 80.79, 15.31 83.51 0.98 48
5 09/28/2023 16:02:37 80.78, -29.99 84.32 09/28/2023 16:03:09 80.79, -29.87 84.36 2.51 32
6 09/28/2023 16:53:38 -80.80, 138.01 95.58 09/28/2023 16:52:31 -80.80, 137.91 95.62 1.72 67
7 09/30/2023 19:53:03 -80.78, 92.47 94.82 09/30/2023 19:53:16 -80.79, 92.62 94.79 3.11 13
8 10/02/2023 23:43:22 80.78,-144.94 86.05 10/02/2023 23:43:22 80.79,-145.05 86.04 1.84 0



Historial Predications of SNOs between NOAA-19 and TERRA
